Location: Meanaryar
(48.4161°N, 4.7315°W)
Time: 09:34:54
(UTC+00:00)

Cosmos 1092 Rocket - Pass Details

Date: 26 January 2021
Orbit: 954 x 995 km, 83.0° (Epoch: 02 March)

Event Time Altitude Azimuth Distance (km) Brightness Sun altitude
Rises 04:03:53 0° 359° (N) 3,645 7.2 -38.1°
Reaches altitude 10° 04:07:10 10° 17° (NNE) 2,697 6.6 -37.6°
Maximum altitude 04:11:33 20° 63° (ENE) 2,070 6.3 -36.9°
Drops below altitude 10° 04:15:56 10° 108° (ESE) 2,697 6.9 -36.2°
Sets 04:19:11 0° 125° (SE) 3,645 7.5 -35.6°
